Regional Weather Roundup
Issued by NWS

Home | Current Version | Previous Version | Text Only | Print | Product List | Glossary Off
Versions: 1 2 3 4 5 6 7 8 9 10 11 12 13 14 15 16 17 18 19 20 21 22 23 24 25 26 27

000
ASUS45 KCYS 171510
RWRWY

WYOMING REGIONAL WEATHER ROUNDUP
NATIONAL WEATHER SERVICE CHEYENNE WY
800 AM MST WED JAN 17 2018

NOTE:  "FAIR" INDICATES FEW OR NO CLOUDS BELOW 12,000 FEET
WITH NO SIGNIFICANT WEATHER AND/OR OBSTRUCTIONS TO VISIBILITY.

WYZ001-171600-
YELLOWSTONE NATIONAL PARK

CITY           SKY/WX    TMP DP  RH WIND       PRES   REMARKS
LK YELLOWSTONE   N/A     11   8  88 CALM      30.39F
W YELLOWSTONE  NOT AVBL

$$
WYZ002>013-054>058-071-098>099-171600-
NORTHERN WYOMING

CITY           SKY/WX    TMP DP  RH WIND       PRES   REMARKS
JACKSON        FAIR      -1  -4  87 NE3       30.43S
CODY           FAIR      17  10  74 N6        30.29R WCI   9
GREYBULL       MOCLDY     1  -4  79 N3        30.36R
WORLAND        FAIR       0  -2  91 SW3       30.33F
SHERIDAN       FAIR      23  13  65 SW3       30.27S
BUFFALO        FAIR      30  12  47 W7        30.27R WCI  23
GILLETTE         N/A     11   6  81 MISG      30.27R
HULETT         FAIR      21  10  63 CALM      30.27R
NEWCASTLE      FAIR      21   1  42 NW9       30.25R WCI  11

$$
WYZ014>020-022>026-101>103-171600-
CENTRAL WYOMING

CITY           SKY/WX    TMP DP  RH WIND       PRES   REMARKS
BIG PINEY      FAIR      11   7  84 CALM      30.34R
PINEDALE       FAIR       3   0  85 NE5       30.34R WCI  -6
DUBOIS         FAIR      30  21  69 W24G31    30.29S WCI  16
LANDER         MOCLDY    13  10  88 NW7       30.32R WCI   3
RIVERTON       FAIR      10   6  84 SE3       30.33R
CASPER         FAIR      21  10  62 W10       30.33R WCI  10
DOUGLAS        FAIR      22  14  71 NW13      30.30R WCI  10

$$
WYZ021-027>030-104>119-171600-
SOUTHERN WYOMING

CITY           SKY/WX    TMP DP  RH WIND       PRES   REMARKS
EVANSTON       FAIR      20  16  84 S5        30.37R WCI  13
FORT BRIDGER   FAIR      29  22  75 W12       30.38S WCI  19
ROCK SPRINGS   FAIR      20  12  71 W10       30.34S WCI   9
DIXON            N/A      9   3  75 CALM      30.42R
RAWLINS        FAIR      10   3  73 S5        30.35R WCI   2
SARATOGA       FAIR      14   3  62 SW3       30.35R
LARAMIE        FAIR       8  -2  63 E3        30.28R
CHEYENNE       FAIR      31   6  35 NW13      30.24R WCI  21
TORRINGTON     FAIR       6   3  87 NW7       30.26R WCI  -6

$$




USA.gov is the U.S. government's official web portal to all federal, state and local government web resources and services.